M I D A S
Marine Information and Data Acquisition System
Tripno 1405 of the Zeeleeuw from 2007-10-19 08:22:55 to 2007-10-19 12:29:27
Back to CruiseResearch ActivitiesStationsMapUnderway DataData graphs

EquipmentUnitsComments
TimeDGPSUTC
LatitudeDGPSDM.mWGS84
LongitudeDGPSDM.mWGS84
SpeedMeteo Stationm/sRelative wind speed
DirectionMeteo StationdegRelative wind direction
TemperatureMeteo Stationdeg CelciusAir temperature
PressureMeteo StationPaAtmospheric pressure
HumidityMeteo Station%Relative humidity
Missing or incorrect values are displayed as -999
Metereological data collected by the RV Zeeleeuw from 2007-10-19 06:05:42 to 2007-10-19 12:38:35
Time Latitude Longitude Speed Direction Temperature Pressure Humidity
2007-10-19 06:06 51°13.618 2°56.02 2.6 82 10.4 103300 85
2007-10-19 06:07 51°13.659 2°55.893 3.1 78 10.5 103300 84
2007-10-19 06:08 51°13.684 2°55.781 1.5 73 10.8 103300 84
2007-10-19 06:09 51°13.686 2°55.719 3.9 279 10.9 103300 81
2007-10-19 06:10 51°13.709 2°55.724 4.3 283 11.1 103300 81
2007-10-19 06:11 51°13.805 2°55.658 10.8 282 11.3 103290 78
2007-10-19 06:12 51°13.943 2°55.566 10.2 278 11.6 103290 76
2007-10-19 06:13 51°14.088 2°55.461 11.4 287 11.9 103290 75
2007-10-19 06:14 51°14.223 2°55.329 11.5 285 12 103280 73
2007-10-19 06:15 51°14.314 2°55.138 10.7 281 12.1 103280 71
2007-10-19 06:16 51°14.414 2°54.906 11.5 278 12.1 103280 71
2007-10-19 06:17 51°14.576 2°54.733 11.7 279 12.2 103280 70
2007-10-19 06:18 51°14.751 2°54.565 11.1 281 12.2 103290 70
2007-10-19 06:19 51°14.931 2°54.412 12 283 12.2 103300 70
2007-10-19 06:20 51°15.109 2°54.249 13 282 12.3 103290 71
2007-10-19 06:21 51°15.285 2°54.076 10.9 282 12.3 103280 70
2007-10-19 06:22 51°15.465 2°53.915 12 282 12.2 103290 73
2007-10-19 06:23 51°15.646 2°53.759 12.6 279 12.2 103290 71
2007-10-19 06:24 51°15.828 2°53.602 14.8 281 12.3 103280 71
2007-10-19 06:25 51°16.009 2°53.451 12.6 278 12.3 103300 69
2007-10-19 06:26 51°16.195 2°53.297 12.9 346 12.2 103300 70
2007-10-19 06:27 51°16.372 2°53.149 10.9 285 12.2 103300 70
2007-10-19 06:28 51°16.553 2°52.998 10.6 283 12.2 103290 68
2007-10-19 06:29 51°16.737 2°52.844 12.8 279 12.2 103300 67
2007-10-19 06:30 51°16.919 2°52.7 11.3 284 12.3 103310 67
2007-10-19 06:31 51°17.119 2°52.592 14.6 280 12.4 103300 68
2007-10-19 06:32 51°17.323 2°52.535 14.5 278 12.4 103300 68
2007-10-19 06:33 51°17.532 2°52.491 13.6 279 12.5 103310 67
2007-10-19 06:34 51°17.74 2°52.455 14 278 12.5 103310 65
2007-10-19 06:35 51°17.951 2°52.454 13.8 282 12.5 103310 64
2007-10-19 06:36 51°18.136 2°52.614 13.2 284 12.6 103280 64
2007-10-19 06:37 51°18.266 2°52.891 14.1 278 12.6 103290 64
2007-10-19 06:38 51°18.387 2°53.178 13.2 282 12.6 103270 64
2007-10-19 06:39 51°18.512 2°53.462 11.9 283 12.5 103290 65
2007-10-19 06:40 51°18.642 2°53.746 14.9 285 12.5 103290 65
2007-10-19 06:41 51°18.771 2°54.018 15.6 284 12.6 103280 65
2007-10-19 06:42 51°18.903 2°54.294 13.6 281 12.6 103290 62
2007-10-19 06:43 51°19.036 2°54.569 14 282 12.6 103300 63
2007-10-19 06:44 51°19.167 2°54.845 11.5 282 12.6 103280 63
2007-10-19 06:45 51°19.296 2°55.122 12.6 286 12.6 103290 64
2007-10-19 06:46 51°19.419 2°55.406 11.9 278 12.6 103280 64
2007-10-19 06:47 51°19.542 2°55.688 13.2 282 12.6 103300 64
2007-10-19 06:48 51°19.666 2°55.969 12.4 278 12.6 103290 64
2007-10-19 06:49 51°19.792 2°56.254 13 282 12.7 103280 65
2007-10-19 06:50 51°19.915 2°56.529 14.6 284 12.7 103300 66
2007-10-19 06:51 51°20.041 2°56.808 10.9 285 12.7 103280 66
2007-10-19 06:52 51°20.166 2°57.087 12.1 278 12.7 103300 66
2007-10-19 06:53 51°20.289 2°57.366 13.8 285 12.7 103300 66
2007-10-19 06:54 51°20.41 2°57.648 11.7 321 12.8 103300 65
2007-10-19 06:55 51°20.52 2°57.941 12.9 278 12.7 103300 64
2007-10-19 06:56 51°20.635 2°58.23 12.7 280 12.7 103300 64
2007-10-19 06:57 51°20.749 2°58.52 14 279 12.7 103290 63
2007-10-19 06:58 51°20.866 2°58.813 13.5 287 12.8 103290 63
2007-10-19 06:59 51°20.979 2°59.104 12.9 320 12.8 103290 66
2007-10-19 07:00 51°21.092 2°59.392 14.3 317 12.8 103290 63
2007-10-19 07:01 51°21.222 2°59.652 14.6 319 12.8 103300 61
2007-10-19 07:02 51°21.411 2°59.799 13.5 282 12.8 103310 64
2007-10-19 07:03 51°21.615 2°59.864 13.6 333 12.8 103310 63
2007-10-19 07:04 51°21.816 2°59.806 14 336 12.8 103310 64
2007-10-19 07:05 51°22.026 2°59.777 15.1 285 12.8 103320 62
2007-10-19 07:06 51°22.233 2°59.758 15 334 12.7 103310 58
2007-10-19 07:07 51°22.441 2°59.726 13.1 283 12.7 103320 58
2007-10-19 07:08 51°22.648 2°59.699 13.6 335 12.8 103320 58
2007-10-19 07:09 51°22.856 2°59.674 15.2 278 12.7 103320 57
2007-10-19 07:10 51°23.063 2°59.654 16.3 284 12.8 103330 54
2007-10-19 07:11 51°23.271 2°59.636 14.1 284 12.8 103340 54
2007-10-19 07:12 51°23.478 2°59.6 15 283 12.8 103340 53
2007-10-19 07:13 51°23.686 2°59.561 13.5 286 12.8 103300 54
2007-10-19 07:14 51°23.896 2°59.52 12.7 284 12.9 103330 54
2007-10-19 07:15 51°24.105 2°59.478 13.4 334 12.9 103350 54
2007-10-19 07:16 51°24.313 2°59.413 13.6 282 12.9 103350 54
2007-10-19 07:17 51°24.516 2°59.315 12.1 341 12.9 103330 57
2007-10-19 07:18 51°24.718 2°59.217 14.7 281 12.8 103340 55
2007-10-19 07:19 51°24.92 2°59.118 12.4 277 12.8 103340 53
2007-10-19 07:20 51°25.1 2°58.952 12 281 12.8 103330 53
2007-10-19 07:21 51°25.277 2°58.776 12.1 281 12.8 103350 52
2007-10-19 07:22 51°25.45 2°58.602 12.1 285 12.8 103340 51
2007-10-19 07:23 51°25.624 2°58.429 12.2 283 12.8 103330 53
2007-10-19 07:24 51°25.799 2°58.262 13.4 282 12.8 103350 53
2007-10-19 07:25 51°25.978 2°58.092 12.4 286 12.7 103340 49
2007-10-19 07:26 51°26.157 2°57.918 11.7 282 12.7 103340 51
2007-10-19 07:27 51°26.341 2°57.744 12.1 283 12.7 103360 52
2007-10-19 07:28 51°26.526 2°57.574 12.7 279 12.7 103350 55
2007-10-19 07:29 51°26.708 2°57.4 12.3 286 12.7 103350 54
2007-10-19 07:30 51°26.889 2°57.224 12.3 282 12.7 103350 55
2007-10-19 07:31 51°27.071 2°57.048 12 282 12.7 103350 55
2007-10-19 07:32 51°27.252 2°56.875 13 282 12.7 103360 53
2007-10-19 07:33 51°27.432 2°56.701 11.5 280 12.7 103330 55
2007-10-19 07:34 51°27.61 2°56.529 10.2 279 12.6 103340 53
2007-10-19 07:35 51°27.788 2°56.353 13.3 283 12.6 103350 54
2007-10-19 07:36 51°27.967 2°56.18 11.8 282 12.7 103350 56
2007-10-19 07:37 51°28.147 2°56.006 11.8 278 12.6 103350 54
2007-10-19 07:38 51°28.326 2°55.833 10.2 277 12.6 103350 56
2007-10-19 07:39 51°28.505 2°55.658 11 278 12.6 103350 56
2007-10-19 07:40 51°28.689 2°55.482 11.4 343 12.6 103360 54
2007-10-19 07:41 51°28.87 2°55.304 11 344 12.7 103360 56
2007-10-19 07:42 51°29.049 2°55.126 12.9 281 12.7 103360 59
2007-10-19 07:43 51°29.226 2°54.949 11.6 283 12.7 103360 56
2007-10-19 07:44 51°29.405 2°54.768 13.2 343 12.7 103370 56
2007-10-19 07:45 51°29.583 2°54.587 12.4 282 12.7 103370 54
2007-10-19 07:46 51°29.761 2°54.406 10.8 345 12.7 103380 54
2007-10-19 07:47 51°29.944 2°54.243 11.7 285 12.7 103350 53
2007-10-19 07:48 51°30.129 2°54.076 12.5 344 12.7 103360 53
2007-10-19 07:49 51°30.323 2°53.94 12.1 278 12.7 103350 53
2007-10-19 07:50 51°30.524 2°53.845 12 286 12.7 103360 52
2007-10-19 07:51 51°30.725 2°53.745 11 281 12.8 103360 54
2007-10-19 07:52 51°30.929 2°53.645 12.1 281 12.8 103360 54
2007-10-19 07:53 51°31.131 2°53.548 12 287 12.8 103360 54
2007-10-19 07:54 51°31.338 2°53.451 13.9 283 12.8 103370 54
2007-10-19 07:55 51°31.545 2°53.354 13.2 286 12.9 103380 58
2007-10-19 07:56 51°31.751 2°53.264 15.7 283 12.9 103370 59
2007-10-19 07:57 51°31.96 2°53.183 15.9 279 12.8 103370 59
2007-10-19 07:58 51°32.166 2°53.084 14 284 12.8 103360 59
2007-10-19 07:59 51°32.369 2°52.983 15.2 283 12.8 103370 64
2007-10-19 08:00 51°32.555 2°52.889 13.9 279 12.8 103370 65
2007-10-19 08:01 51°32.677 2°52.837 15.1 285 12.7 103380 63
2007-10-19 08:02 51°32.81 2°52.77 14 282 12.6 103400 64
2007-10-19 08:03 51°32.94 2°52.706 11.5 277 12.6 103380 67
2007-10-19 08:04 51°33.079 2°52.64 13.7 284 12.5 103380 66
2007-10-19 08:05 51°33.231 2°52.568 12.7 277 12.4 103390 67
2007-10-19 08:06 51°33.311 2°52.412 9.7 4 12.4 103380 68
2007-10-19 08:07 51°33.343 2°52.254 11.4 356 12.4 103380 68
2007-10-19 08:08 51°33.36 2°52.111 8.3 20 12.3 103370 63
2007-10-19 08:09 51°33.318 2°51.98 9.4 22 12.3 103400 64
2007-10-19 08:10 51°33.272 2°51.853 5.6 35 12.2 103410 60
2007-10-19 08:11 51°33.216 2°51.768 6.5 28 12.2 103410 61
2007-10-19 08:12 51°33.173 2°51.701 6.4 27 12.3 103420 61
2007-10-19 08:13 51°33.141 2°51.642 4.5 27 12.3 103420 60
2007-10-19 08:14 51°33.121 2°51.594 7.1 22 12.3 103410 61
2007-10-19 08:15 51°33.113 2°51.563 3.8 21 12.2 103420 56
2007-10-19 08:16 51°33.13 2°51.492 8.6 287 12.2 103410 60
2007-10-19 08:17 51°33.197 2°51.516 9.4 284 12.3 103400 61
2007-10-19 08:18 51°33.175 2°51.623 5 280 12.3 103400 63
2007-10-19 08:19 51°33.129 2°51.682 7.7 75 12.3 103410 61
2007-10-19 08:20 51°33.11 2°51.707 8.1 76 12.4 103400 64
2007-10-19 08:21 51°33.11 2°51.703 8.1 281 12.4 103400 63
2007-10-19 08:22 51°33.108 2°51.701 5.9 281 12.4 103410 62
2007-10-19 08:23 51°33.106 2°51.697 4.3 285 12.3 103410 60
2007-10-19 08:24 51°33.102 2°51.695 5.1 278 12.4 103420 63
2007-10-19 08:25 51°33.1 2°51.695 6.1 285 12.3 103410 60
2007-10-19 08:26 51°33.094 2°51.706 7.1 277 12.3 103420 59
2007-10-19 08:27 51°33.089 2°51.751 8.5 280 12.4 103400 62
2007-10-19 08:28 51°33.085 2°51.782 7.5 280 12.3 103400 61
2007-10-19 08:29 51°33.083 2°51.804 8.4 280 12.4 103410 64
2007-10-19 08:30 51°33.082 2°51.82 6.5 279 12.4 103420 62
2007-10-19 08:31 51°33.078 2°51.829 6.3 281 12.4 103410 64
2007-10-19 08:32 51°33.074 2°51.835 7.7 284 12.4 103420 61
2007-10-19 08:33 51°33.071 2°51.846 8.9 281 12.4 103410 60
2007-10-19 08:34 51°33.083 2°51.895 5.1 284 12.3 103420 61
2007-10-19 08:35 51°33.141 2°51.886 7 3 12.3 103410 64
2007-10-19 08:36 51°33.144 2°51.773 5.7 21 12.3 103420 66
2007-10-19 08:37 51°33.144 2°51.68 6.8 12 12.2 103420 67
2007-10-19 08:38 51°33.148 2°51.625 4.2 21 12.2 103430 64
2007-10-19 08:39 51°33.159 2°51.579 8.4 356 12.1 103430 65
2007-10-19 08:40 51°33.173 2°51.548 7.1 356 12.1 103420 67
2007-10-19 08:41 51°33.178 2°51.53 6.2 355 12 103410 67
2007-10-19 08:42 51°33.178 2°51.52 5.7 360 11.8 103430 67
2007-10-19 08:43 51°33.173 2°51.515 5.3 15 11.7 103420 68
2007-10-19 08:44 51°33.168 2°51.513 6.9 17 11.8 103420 71
2007-10-19 08:45 51°33.163 2°51.512 4.7 22 11.7 103440 71
2007-10-19 08:46 51°33.158 2°51.513 4.9 24 11.7 103430 72
2007-10-19 08:47 51°33.153 2°51.514 6.3 27 11.7 103440 73
2007-10-19 08:48 51°33.149 2°51.515 5.4 28 11.6 103430 73
2007-10-19 08:49 51°33.144 2°51.514 5.1 31 11.6 103430 74
2007-10-19 08:50 51°33.139 2°51.513 5.1 26 11.5 103430 73
2007-10-19 08:51 51°33.134 2°51.51 4.5 28 11.6 103440 73
2007-10-19 08:52 51°33.129 2°51.507 5.2 27 11.6 103440 74
2007-10-19 08:53 51°33.124 2°51.504 5.1 21 11.6 103440 74
2007-10-19 08:54 51°33.119 2°51.5 4.7 21 11.6 103440 74
2007-10-19 08:55 51°33.115 2°51.496 4.1 17 11.6 103430 74
2007-10-19 08:56 51°33.111 2°51.493 3.9 17 11.6 103430 74
2007-10-19 08:57 51°33.106 2°51.489 3.8 13 11.5 103430 73
2007-10-19 08:58 51°33.102 2°51.485 6.5 19 11.6 103430 75
2007-10-19 08:59 51°33.097 2°51.482 6.1 18 11.6 103420 72
2007-10-19 09:00 51°33.093 2°51.479 3.9 16 11.7 103430 72
2007-10-19 09:01 51°33.087 2°51.476 4 19 11.8 103430 75
2007-10-19 09:02 51°33.082 2°51.471 4.3 18 11.8 103430 71
2007-10-19 09:03 51°33.079 2°51.464 3.4 23 11.8 103430 70
2007-10-19 09:04 51°33.075 2°51.457 3.4 9 11.9 103430 71
2007-10-19 09:05 51°33.07 2°51.449 3.6 19 11.9 103420 71
2007-10-19 09:06 51°33.066 2°51.44 4.2 7 11.9 103420 71
2007-10-19 09:07 51°33.062 2°51.43 5.7 8 11.9 103430 70
2007-10-19 09:08 51°33.058 2°51.413 3.2 10 11.9 103430 71
2007-10-19 09:09 51°33.034 2°51.369 2.2 37 11.9 103430 71
2007-10-19 09:10 51°32.993 2°51.383 5 285 12 103430 72
2007-10-19 09:11 51°32.986 2°51.457 4.9 281 12 103440 70
2007-10-19 09:12 51°33.024 2°51.503 6.8 282 12.1 103430 69
2007-10-19 09:13 51°33.054 2°51.522 5.6 283 12.1 103430 66
2007-10-19 09:14 51°33.067 2°51.528 5.3 283 12.2 103420 67
2007-10-19 09:15 51°33.071 2°51.523 5.2 359 12.2 103420 65
2007-10-19 09:16 51°33.068 2°51.513 4.6 5 12.3 103420 68
2007-10-19 09:17 51°33.061 2°51.502 6 9 12.3 103430 67
2007-10-19 09:18 51°33.054 2°51.495 6.3 19 12.2 103430 65
2007-10-19 09:19 51°33.045 2°51.492 4.9 22 12.2 103420 68
2007-10-19 09:20 51°33.037 2°51.49 4.4 27 12.3 103420 69
2007-10-19 09:21 51°33.031 2°51.491 4.6 30 12.2 103440 66
2007-10-19 09:22 51°33.026 2°51.486 5.2 41 12.3 103430 68
2007-10-19 09:23 51°33.02 2°51.479 5.5 38 12.3 103430 66
2007-10-19 09:24 51°33.023 2°51.437 4.9 16 12.2 103430 67
2007-10-19 09:25 51°33.067 2°51.388 5.6 281 12.2 103420 67
2007-10-19 09:26 51°33.111 2°51.424 5.8 285 12.2 103420 66
2007-10-19 09:27 51°33.124 2°51.473 4.7 280 12.3 103430 67
2007-10-19 09:28 51°33.124 2°51.506 5.9 284 12.3 103420 67
2007-10-19 09:29 51°33.123 2°51.524 4.6 285 12.3 103420 66
2007-10-19 09:30 51°33.121 2°51.534 4.9 278 12.4 103420 69
2007-10-19 09:31 51°33.117 2°51.537 3.3 285 12.4 103430 67
2007-10-19 09:32 51°33.113 2°51.535 3.4 278 12.4 103430 67
2007-10-19 09:33 51°33.107 2°51.529 3 282 12.4 103430 68
2007-10-19 09:34 51°33.101 2°51.521 3.7 281 12.4 103430 66
2007-10-19 09:35 51°33.095 2°51.512 4.2 284 12.5 103430 67
2007-10-19 09:36 51°33.088 2°51.501 4.2 279 12.5 103430 66
2007-10-19 09:37 51°33.08 2°51.489 4.2 286 12.5 103440 65
2007-10-19 09:38 51°33.072 2°51.479 4.3 285 12.5 103430 66
2007-10-19 09:39 51°33.063 2°51.469 6.6 281 12.5 103430 66
2007-10-19 09:40 51°33.053 2°51.462 5.4 279 12.6 103430 65
2007-10-19 09:41 51°33.042 2°51.458 6.3 286 12.6 103430 67
2007-10-19 09:42 51°33.031 2°51.491 5.9 284 12.6 103430 65
2007-10-19 09:43 51°33.026 2°51.562 8.4 280 12.6 103420 64
2007-10-19 09:44 51°33.027 2°51.62 6.6 280 12.6 103410 66
2007-10-19 09:45 51°33.026 2°51.656 7.6 279 12.6 103410 62
2007-10-19 09:46 51°33.024 2°51.676 7 280 12.6 103410 64
2007-10-19 09:47 51°33.019 2°51.688 8.6 279 12.7 103410 67
2007-10-19 09:48 51°33.022 2°51.711 10 282 12.7 103430 66
2007-10-19 09:49 51°33.061 2°51.714 8.8 280 12.6 103420 64
2007-10-19 09:50 51°33.104 2°51.647 10 283 12.5 103410 66
2007-10-19 09:51 51°33.157 2°51.613 8.5 281 12.5 103410 64
2007-10-19 09:52 51°33.172 2°51.625 10.2 283 12.5 103410 64
2007-10-19 09:53 51°33.162 2°51.617 4.4 285 12.5 103450 65
2007-10-19 09:54 51°33.132 2°51.657 5.5 81 12.5 103440 65
2007-10-19 09:55 51°33.113 2°51.663 5.6 79 12.5 103440 64
2007-10-19 09:56 51°33.102 2°51.656 6.1 80 12.6 103430 66
2007-10-19 09:57 51°33.086 2°51.65 5.1 75 12.6 103430 62
2007-10-19 09:58 51°33.067 2°51.642 6.7 75 12.6 103430 64
2007-10-19 09:59 51°33.047 2°51.633 6.7 78 12.5 103430 64
2007-10-19 10:00 51°33.026 2°51.625 4.8 82 12.6 103430 62
2007-10-19 10:01 51°33.005 2°51.615 3.2 82 12.9 103430 62
2007-10-19 10:02 51°32.981 2°51.608 4.8 76 13 103420 58
2007-10-19 10:03 51°32.951 2°51.631 4.4 281 13 103430 61
2007-10-19 10:04 51°32.935 2°51.645 4.7 286 12.8 103430 61
2007-10-19 10:05 51°32.925 2°51.654 5 285 12.8 103430 62
2007-10-19 10:06 51°32.919 2°51.674 4.8 281 12.7 103440 64
2007-10-19 10:07 51°32.942 2°51.709 6.4 282 12.7 103430 63
2007-10-19 10:08 51°32.997 2°51.67 6.6 286 12.6 103420 61
2007-10-19 10:09 51°33.029 2°51.62 5.1 280 12.6 103420 63
2007-10-19 10:10 51°33.03 2°51.593 4.3 4 12.6 103420 61
2007-10-19 10:11 51°33.025 2°51.57 4.4 11 12.6 103420 63
2007-10-19 10:12 51°33.015 2°51.549 4.4 18 12.6 103430 61
2007-10-19 10:13 51°33.005 2°51.531 4.1 18 12.6 103420 61
2007-10-19 10:14 51°32.994 2°51.514 4.6 25 12.6 103420 63
2007-10-19 10:15 51°32.983 2°51.497 7.4 19 12.7 103410 63
2007-10-19 10:16 51°32.975 2°51.456 6 6 12.7 103410 64
2007-10-19 10:17 51°33.024 2°51.41 7.3 284 12.7 103410 64
2007-10-19 10:18 51°33.025 2°51.401 6.7 279 12.7 103410 63
2007-10-19 10:19 51°33.015 2°51.391 5.4 278 12.7 103410 62
2007-10-19 10:20 51°33.005 2°51.378 4.3 279 12.7 103400 63
2007-10-19 10:21 51°32.993 2°51.369 4.8 285 12.7 103400 62
2007-10-19 10:22 51°32.983 2°51.381 5.1 281 12.7 103400 63
2007-10-19 10:23 51°33.01 2°51.416 6.2 285 12.7 103410 61
2007-10-19 10:24 51°33.079 2°51.432 6.7 281 12.7 103400 60
2007-10-19 10:25 51°33.215 2°51.538 11.3 279 12.7 103400 60
2007-10-19 10:26 51°33.403 2°51.629 12.9 286 12.7 103400 60
2007-10-19 10:27 51°33.58 2°51.733 11.5 279 12.7 103400 59
2007-10-19 10:28 51°33.704 2°51.867 9.3 284 12.8 103380 59
2007-10-19 10:29 51°33.776 2°51.958 6.6 283 12.7 103400 57
2007-10-19 10:30 51°33.833 2°52.028 8.1 280 12.8 103410 59
2007-10-19 10:31 51°33.9 2°52.109 9.4 287 12.8 103410 58
2007-10-19 10:32 51°33.969 2°52.191 9.8 279 12.8 103410 58
2007-10-19 10:33 51°34.034 2°52.272 9.2 285 12.8 103410 58
2007-10-19 10:34 51°34.091 2°52.345 8.3 286 12.8 103410 54
2007-10-19 10:35 51°34.134 2°52.399 7.1 280 12.8 103420 54
2007-10-19 10:36 51°34.162 2°52.436 6 286 12.8 103420 55
2007-10-19 10:37 51°34.187 2°52.467 6 280 12.8 103410 57
2007-10-19 10:38 51°34.201 2°52.503 6.9 284 12.8 103410 56
2007-10-19 10:39 51°34.217 2°52.54 6.3 282 12.8 103420 55
2007-10-19 10:40 51°34.239 2°52.546 7.7 279 12.8 103420 56
2007-10-19 10:41 51°34.257 2°52.518 7 12 12.8 103410 58
2007-10-19 10:42 51°34.254 2°52.432 3.7 75 12.8 103420 61
2007-10-19 10:43 51°34.198 2°52.388 5 283 12.8 103420 55
2007-10-19 10:44 51°34.158 2°52.407 4.2 286 12.8 103420 57
2007-10-19 10:45 51°34.137 2°52.404 4.5 280 12.8 103420 58
2007-10-19 10:46 51°34.128 2°52.371 7.2 285 12.9 103410 59
2007-10-19 10:47 51°34.115 2°52.348 8.1 284 12.8 103420 57
2007-10-19 10:48 51°34.098 2°52.331 6.5 282 12.7 103410 57
2007-10-19 10:49 51°34.081 2°52.315 5.2 280 12.7 103420 61
2007-10-19 10:50 51°34.064 2°52.3 8.9 285 12.7 103420 58
2007-10-19 10:51 51°34.046 2°52.287 9.7 280 12.8 103420 62
2007-10-19 10:52 51°34.029 2°52.275 6.8 280 12.8 103420 59
2007-10-19 10:53 51°34.011 2°52.264 5.5 281 12.8 103410 58
2007-10-19 10:54 51°33.994 2°52.254 4.7 282 12.8 103420 57
2007-10-19 10:55 51°33.958 2°52.311 6.1 280 12.8 103420 57
2007-10-19 10:56 51°33.818 2°52.37 1.9 279 12.8 103420 59
2007-10-19 10:57 51°33.62 2°52.279 4.2 278 12.8 103420 62
2007-10-19 10:58 51°33.408 2°52.232 4.7 283 12.8 103420 60
2007-10-19 10:59 51°33.193 2°52.209 4.1 279 12.8 103420 58
2007-10-19 11:00 51°32.977 2°52.19 5.7 280 12.8 103420 58
2007-10-19 11:01 51°32.765 2°52.184 3 285 12.8 103420 57
2007-10-19 11:02 51°32.55 2°52.181 4.1 278 12.8 103410 57
2007-10-19 11:03 51°32.337 2°52.176 2.2 285 12.8 103430 58
2007-10-19 11:04 51°32.121 2°52.17 4.6 277 12.8 103420 60
2007-10-19 11:05 51°31.904 2°52.16 3.9 279 12.8 103420 58
2007-10-19 11:06 51°31.689 2°52.144 2.5 280 12.8 103420 59
2007-10-19 11:07 51°31.474 2°52.133 2.8 279 12.8 103420 58
2007-10-19 11:08 51°31.256 2°52.114 4 280 12.8 103420 56
2007-10-19 11:09 51°31.039 2°52.098 5.5 279 12.8 103420 57
2007-10-19 11:10 51°30.822 2°52.082 2.7 280 12.8 103420 57
2007-10-19 11:11 51°30.607 2°52.06 2.8 284 12.8 103430 57
2007-10-19 11:12 51°30.392 2°52.05 4 285 12.8 103420 57
2007-10-19 11:13 51°30.177 2°52.038 3.2 287 12.9 103420 57
2007-10-19 11:14 51°29.961 2°52.02 4.9 281 12.9 103420 58
2007-10-19 11:15 51°29.743 2°52.002 5.6 280 12.9 103420 57
2007-10-19 11:16 51°29.525 2°51.988 4.5 278 12.9 103430 58
2007-10-19 11:17 51°29.308 2°51.981 4.8 280 12.9 103410 58
2007-10-19 11:18 51°29.091 2°51.972 5.9 282 12.9 103420 58
2007-10-19 11:19 51°28.879 2°51.969 4 285 12.9 103420 57
2007-10-19 11:20 51°28.662 2°51.962 3.5 283 12.9 103420 57
2007-10-19 11:21 51°28.446 2°51.969 4.6 286 12.8 103420 56
2007-10-19 11:22 51°28.232 2°51.973 3.9 278 12.9 103420 58
2007-10-19 11:23 51°28.018 2°51.964 3.6 286 12.8 103420 55
2007-10-19 11:24 51°27.803 2°51.965 3.2 281 12.9 103420 57
2007-10-19 11:25 51°27.585 2°51.961 4.5 286 12.8 103420 57
2007-10-19 11:26 51°27.369 2°51.958 3.8 284 12.9 103420 57
2007-10-19 11:27 51°27.152 2°51.95 5.6 285 12.9 103420 59
2007-10-19 11:28 51°26.933 2°51.946 6.2 285 12.9 103410 59
2007-10-19 11:29 51°26.715 2°51.947 4.9 285 12.9 103410 58
2007-10-19 11:30 51°26.499 2°51.946 6.7 284 12.9 103410 59
2007-10-19 11:31 51°26.282 2°51.941 4.5 279 12.9 103410 55
2007-10-19 11:32 51°26.066 2°51.938 5 279 12.9 103420 59
2007-10-19 11:33 51°25.851 2°51.936 4.1 285 12.9 103420 60
2007-10-19 11:34 51°25.637 2°51.937 4.6 280 12.9 103420 59
2007-10-19 11:35 51°25.422 2°51.94 3.9 280 13 103420 58
2007-10-19 11:36 51°25.205 2°51.934 5 279 12.9 103420 57
2007-10-19 11:37 51°24.987 2°51.933 4.7 285 12.9 103420 56
2007-10-19 11:38 51°24.77 2°51.932 4.7 280 12.9 103420 56
2007-10-19 11:39 51°24.551 2°51.93 5.7 287 12.9 103420 56
2007-10-19 11:40 51°24.335 2°51.93 6 280 12.9 103420 57
2007-10-19 11:41 51°24.117 2°51.94 4.1 280 12.9 103420 56
2007-10-19 11:42 51°23.897 2°51.943 3.9 277 12.9 103420 56
2007-10-19 11:43 51°23.677 2°51.952 4.7 281 12.9 103420 55
2007-10-19 11:44 51°23.455 2°51.958 5.4 283 12.9 103420 56
2007-10-19 11:45 51°23.232 2°51.965 4.4 281 12.9 103420 57
2007-10-19 11:46 51°23.009 2°51.978 3.4 279 12.9 103410 55
2007-10-19 11:47 51°22.788 2°51.991 4.8 280 12.9 103420 56
2007-10-19 11:48 51°22.568 2°51.999 5.4 283 12.9 103410 57
2007-10-19 11:49 51°22.353 2°52.012 5.4 279 12.9 103410 56
2007-10-19 11:50 51°22.135 2°52.025 4.8 282 12.9 103410 56
2007-10-19 11:51 51°21.919 2°52.038 3.5 283 12.9 103410 57
2007-10-19 11:52 51°21.702 2°52.05 4.5 280 13 103410 58
2007-10-19 11:53 51°21.484 2°52.061 3.3 285 13 103410 57
2007-10-19 11:54 51°21.266 2°52.074 3.1 282 13 103400 56
2007-10-19 11:55 51°21.046 2°52.082 4.7 284 13 103410 59
2007-10-19 11:56 51°20.83 2°52.092 5.1 279 13 103410 58
2007-10-19 11:57 51°20.613 2°52.101 2.6 280 13 103410 57
2007-10-19 11:58 51°20.395 2°52.11 4.9 286 13 103410 57
2007-10-19 11:59 51°20.176 2°52.115 4.5 279 13 103410 58
2007-10-19 12:00 51°19.959 2°52.126 4.9 285 13 103410 57
2007-10-19 12:01 51°19.743 2°52.133 4.9 280 13 103410 54
2007-10-19 12:02 51°19.524 2°52.148 5.5 282 12.9 103410 56
2007-10-19 12:03 51°19.308 2°52.158 4.3 282 12.9 103410 56
2007-10-19 12:04 51°19.09 2°52.169 5.1 284 12.9 103410 58
2007-10-19 12:05 51°18.873 2°52.181 4.9 284 12.9 103410 57
2007-10-19 12:06 51°18.652 2°52.191 4.7 279 12.9 103400 55
2007-10-19 12:07 51°18.434 2°52.206 6.1 283 12.9 103400 56
2007-10-19 12:08 51°18.218 2°52.216 4.4 286 12.8 103410 56
2007-10-19 12:09 51°18 2°52.225 5.1 278 12.8 103400 56
2007-10-19 12:10 51°17.782 2°52.236 3.4 287 12.8 103410 54
2007-10-19 12:11 51°17.56 2°52.244 2.9 278 12.8 103400 56
2007-10-19 12:12 51°17.339 2°52.271 3.9 280 12.8 103400 55
2007-10-19 12:13 51°17.127 2°52.345 3.8 279 12.8 103400 54
2007-10-19 12:14 51°16.925 2°52.468 7.6 280 12.8 103400 57
2007-10-19 12:15 51°16.741 2°52.633 7.4 280 12.8 103390 55
2007-10-19 12:16 51°16.557 2°52.804 7.9 280 12.9 103390 56
2007-10-19 12:17 51°16.376 2°52.972 5.9 279 12.8 103390 55
2007-10-19 12:18 51°16.19 2°53.13 6.5 280 12.9 103390 57
2007-10-19 12:19 51°16.003 2°53.285 7.1 279 12.9 103390 57
2007-10-19 12:20 51°15.819 2°53.438 8.1 282 12.8 103380 55
2007-10-19 12:21 51°15.64 2°53.601 9.3 280 12.8 103380 57
2007-10-19 12:22 51°15.464 2°53.763 8.5 279 12.8 103380 55
2007-10-19 12:23 51°15.285 2°53.93 8.5 281 12.8 103370 55
2007-10-19 12:24 51°15.113 2°54.102 7.3 278 12.8 103390 54
2007-10-19 12:25 51°14.938 2°54.273 7.6 284 12.8 103380 56
2007-10-19 12:26 51°14.768 2°54.457 6.8 280 12.8 103390 54
2007-10-19 12:27 51°14.604 2°54.657 7.9 279 12.8 103380 55
2007-10-19 12:28 51°14.462 2°54.884 9.4 282 12.8 103380 53
2007-10-19 12:29 51°14.338 2°55.131 7.5 281 12.8 103370 55
2007-10-19 12:30 51°14.234 2°55.303 5.8 280 12.8 103380 54
2007-10-19 12:31 51°14.125 2°55.411 2.9 285 12.8 103390 53
2007-10-19 12:32 51°14.045 2°55.469 3 279 12.8 103400 54
2007-10-19 12:33 51°13.968 2°55.528 2.3 283 12.8 103390 55
2007-10-19 12:34 51°13.867 2°55.602 3.9 283 12.9 103400 55
2007-10-19 12:35 51°13.765 2°55.692 3.4 278 12.9 103390 55
2007-10-19 12:36 51°13.695 2°55.805 4.2 277 12.9 103390 53
2007-10-19 12:37 51°13.652 2°55.905 3.9 284 12.9 103390 52